カタログに戻る

CENTISPACE-2 S3

運用中ナビゲーションLEO
NORAD 68352·PAYLOAD·🇨🇳 China

打ち上げ Mar 22, 2026 から Yellow Sea Launch Area

Loading…

次のパス (今後24時間)

TLE

最新Source: Space-Track

元期: Sep 14, 2026, 10:36 UTC

1 68352U 26060C   26257.44202523  .00000076  00000-0  97235-4 0  9995
2 68352  54.9818  48.7544 0008914 269.4849  90.5107 14.26163120 25675

AllMySatでCENTISPACE-2 S3をリアルタイム追跡

Download on the App Store